Temp
66 65 65 63 63 62 60 59 59 59 60 61 61 61 61 60 59 58 59 58 57 56 57 57 56 55 54 54 58 58 56 55 51 55 56 58 56 57 58 58 60 60 61
66 64 63 62 61 60 59 59 59 59 60 60 61 61 61 59 56 55 54 54 54 53 55 55 55 60 58 55 57 55 55 56 53 50 54 53 54 58 58 58 59 61 61
65 63 62 60 60 59 58 58 59 59 59 61 60 55 54 52 52 52 52 52 51 52 52 52 53 55 52 55 55 54 54 55 54 51 50 53 54 55 57 57 57 57 59
65 62 61 60 60 60 59 59 59 59 58 57 54 52 49 48 48 49 50 48 48 50 50 51 53 55 51 52 52 52 52 50 49 50 50 51 54 56 55 51 50 52 52
63 61 60 59 60 60 59 58 57 57 57 56 51 49 47 47 47 45 44 44 44 46 49 53 54 55 55 53 51 50 46 45 48 49 49 51 51 49 48 50 48 49 50
62 60 61 61 59 55 55 55 55 54 53 52 49 46 43 45 44 46 45 41 44 46 48 50 54 51 51 50 50 50 50 47 48 48 48 46 45 48 50 49 47 45 43
61 62 60 58 56 55 55 54 51 50 51 50 46 43 40 40 43 43 45 42 45 50 50 50 53 51 47 46 47 48 51 51 51 48 40 42 45 48 49 47 47 45 44
61 60 59 57 55 54 53 50 50 53 53 50 48 45 41 42 43 42 44 43 43 44 45 47 46 46 45 44 45 47 48 50 50 50 47 43 45 46 48 47 46 46 46
58 57 56 55 53 52 50 49 50 52 51 50 50 45 38 37 42 42 41 40 44 44 47 47 47 46 43 42 44 44 45 47 51 49 47 46 44 44 45 44 41 39 37
56 56 55 54 52 49 48 48 49 48 47 48 46 44 42 36 42 42 40 40 41 41 44 47 46 45 42 41 42 42 42 44 43 43 44 43 44 46 46 43 42 35 35
56 54 54 53 50 48 47 47 46 47 46 44 44 43 40 38 38 42 42 38 41 41 42 44 46 43 41 41 41 39 39 42 42 40 41 42 46 43 41 42 42 39 34
54 53 51 50 52 50 46 46 46 45 43 43 43 41 39 38 42 41 41 41 42 40 42 44 44 42 41 40 41 41 41 44 43 43 42 41 40 38 39 40 40 40 39
52 50 50 50 48 47 43 41 41 41 40 41 40 37 35 37 35 40 39 40 41 40 39 42 42 41 41 42 43 44 43 44 43 41 39 40 39 39 39 39 39 40 40
50 49 50 48 46 44 43 39 36 35 35 37 37 33 32 33 33 34 35 34 39 40 41 39 45 44 44 44 44 44 45 45 43 40 40 40 40 38 37 38 35 36 36
50 50 47 44 41 38 37 35 36 31 34 32 32 33 32 31 34 37 36 34 34 37 41 40 41 39 41 43 44 45 44 43 39 39 38 38 37 36 37 37 37 37 35
48 48 47 44 41 39 36 32 37 37 38 38 38 37 36 39 39 39 39 38 39 40 40 39 39 41 42 42 41 41 41 40 38 37 35 35 35 34 34 36 38 36 35
45 45 47 45 42 38 36 33 31 34 38 38 38 38 38 38 39 39 39 39 41 40 36 37 37 37 40 40 40 39 38 38 38 35 33 34 34 34 34 35 36 36 35
45 46 42 43 42 41 39 37 35 33 33 35 38 37 38 40 41 39 41 41 38 39 37 37 39 40 40 39 39 38 37 35 34 32 31 33 33 32 33 35 35 34 35
45 43 42 42 42 42 41 41 40 39 36 36 37 39 41 41 42 42 41 38 38 37 40 39 39 41 40 39 38 38 35 33 32 30 29 31 32 32 33 36 35 34 35
43 43 43 42 41 41 40 39 39 38 36 36 36 35 36 38 36 37 38 38 37 38 39 37 39 40 38 37 35 35 33 31 29 28 27 29 30 32 34 36 34 35 34
42 42 43 41 41 41 40 39 39 38 36 36 36 37 34 37 35 35 35 36 36 36 36 36 36 39 37 35 34 33 31 29 28 26 27 28 28 31 34 36 35 37 36
42 42 42 41 41 41 39 39 38 38 38 37 36 38 36 36 35 35 35 35 36 36 37 37 36 36 35 34 32 31 29 28 26 27 27 27 28 30 34 34 35 36 35
43 42 41 40 41 41 39 38 37 37 37 37 37 37 37 35 35 34 35 34 35 35 36 36 36 35 34 33 33 31 28 26 26 27 26 26 27 29 33 31 34 34 34
42 41 40 39 40 37 36 36 36 38 38 37 37 37 35 35 34 35 34 34 34 35 35 35 36 34 32 32 32 31 29 28 28 28 28 27 28 33 32 31 33 34 34
40 38 37 36 36 35 35 35 35 36 38 37 36 36 35 35 34 34 33 34 33 34 34 35 34 34 33 32 31 31 30 30 29 30 29 28 33 32 31 31 33 33 34
39 37 35 34 34 34 34 34 34 35 35 35 35 34 34 33 33 32 32 33 33 34 35 34 35 34 33 32 31 31 30 29 29 30 28 32 32 31 31 31 32 32 33
MSLP
1008.31 1009.06 1009.76 1010.57 1011.01 1011.76 1012.51 1013.24 1013.80 1014.16 1014.42 1014.48 1014.72 1014.78 1015.29 1015.44 1015.60 1015.83 1016.20 1016.41 1016.42 1016.44 1016.31 1016.29 1016.15 1015.91 1015.88 1015.73 1015.40 1015.18 1015.14 1015.17 1014.91 1013.79 1013.67 1013.07 1012.48 1011.69 1011.06 1010.66 1010.29 1009.74 1009.26
1008.77 1009.79 1010.52 1011.29 1011.94 1012.45 1013.14 1013.57 1013.84 1014.34 1014.73 1015.06 1015.07 1015.41 1015.76 1016.11 1016.41 1016.84 1017.17 1017.22 1017.15 1017.11 1016.89 1016.62 1016.46 1016.09 1015.85 1015.72 1015.42 1015.40 1015.33 1015.19 1015.11 1014.51 1013.75 1013.32 1012.74 1011.87 1011.14 1010.27 1009.74 1009.32 1008.95
1009.46 1010.58 1011.51 1012.05 1012.49 1012.92 1013.24 1013.64 1014.01 1014.48 1014.89 1015.25 1015.70 1016.51 1016.84 1017.33 1017.53 1017.76 1017.90 1017.85 1017.69 1017.47 1017.27 1017.04 1016.72 1016.31 1016.25 1016.00 1015.71 1015.65 1015.56 1015.35 1015.27 1014.96 1013.89 1013.10 1012.47 1011.79 1010.84 1010.30 1009.76 1009.15 1008.90
1010.16 1011.31 1012.01 1012.34 1012.67 1012.90 1013.28 1013.90 1014.52 1015.07 1015.44 1016.24 1016.85 1017.52 1017.93 1018.34 1018.67 1018.64 1018.45 1018.38 1018.24 1017.84 1017.48 1017.14 1016.80 1016.56 1016.60 1016.45 1016.19 1016.09 1015.97 1015.70 1015.35 1014.81 1014.06 1013.20 1012.51 1011.66 1011.39 1010.86 1009.63 1009.47 1008.69
1010.73 1011.79 1012.35 1012.46 1013.08 1013.52 1014.05 1014.84 1015.46 1015.88 1016.46 1017.09 1017.86 1018.57 1018.87 1019.00 1019.46 1019.51 1019.28 1018.97 1018.58 1018.08 1017.54 1017.10 1016.90 1016.95 1016.91 1016.83 1016.56 1016.40 1016.34 1015.88 1015.34 1014.68 1014.10 1013.36 1012.73 1012.02 1011.68 1011.07 1010.36 1009.16 1008.39
1011.33 1012.31 1012.90 1013.35 1014.09 1014.71 1015.14 1015.70 1016.11 1016.70 1017.25 1017.89 1018.79 1019.46 1019.85 1020.10 1020.15 1019.90 1019.62 1019.13 1018.61 1018.22 1017.84 1017.49 1017.25 1017.30 1017.19 1016.92 1016.76 1016.59 1016.27 1015.71 1015.14 1014.87 1014.59 1014.06 1013.31 1012.52 1011.65 1011.10 1010.37 1009.44 1007.93
1012.24 1012.97 1013.93 1014.52 1015.10 1015.64 1016.10 1016.44 1017.01 1017.60 1017.87 1018.62 1019.53 1020.09 1020.47 1020.54 1020.19 1019.93 1019.64 1019.16 1018.78 1018.51 1018.18 1017.90 1017.48 1017.67 1017.52 1017.34 1017.12 1016.61 1015.93 1015.53 1015.29 1015.04 1014.73 1014.43 1013.60 1012.77 1011.91 1010.90 1010.27 1009.59 1008.57
1012.98 1013.91 1014.80 1015.32 1016.01 1016.61 1016.92 1017.38 1017.69 1017.99 1018.52 1019.10 1019.78 1020.30 1020.62 1020.85 1020.62 1020.38 1019.93 1019.56 1019.31 1019.06 1018.84 1018.64 1018.37 1018.17 1017.98 1017.77 1017.28 1016.69 1016.21 1015.57 1015.09 1014.76 1014.48 1014.08 1013.59 1012.87 1012.17 1011.43 1010.25 1009.20 1008.36
1014.17 1014.89 1015.53 1016.18 1016.91 1017.40 1017.70 1018.18 1018.30 1018.63 1019.30 1019.36 1019.98 1020.42 1020.95 1021.39 1021.16 1020.92 1020.55 1020.19 1019.94 1019.62 1019.22 1018.92 1018.66 1018.35 1018.10 1017.85 1017.47 1016.78 1016.10 1015.43 1014.78 1014.36 1013.98 1013.45 1013.00 1012.52 1011.94 1011.09 1010.21 1009.56 1008.39
1015.18 1015.80 1016.48 1016.97 1017.50 1018.02 1018.41 1018.79 1018.80 1019.05 1019.37 1019.78 1020.14 1020.67 1021.56 1021.89 1021.68 1021.38 1021.17 1020.90 1020.53 1020.06 1019.60 1019.12 1018.75 1018.40 1018.04 1017.76 1017.60 1017.04 1016.25 1015.46 1014.73 1014.07 1013.56 1013.14 1012.65 1012.08 1011.71 1011.51 1010.81 1010.07 1009.41
1016.09 1016.49 1017.01 1017.60 1018.12 1018.68 1019.05 1019.12 1019.25 1019.36 1019.68 1020.07 1020.61 1021.38 1022.03 1022.12 1022.03 1021.67 1021.46 1021.12 1020.81 1020.39 1019.89 1019.30 1018.74 1018.29 1017.90 1017.36 1017.14 1016.83 1016.44 1015.62 1014.82 1014.35 1013.71 1013.30 1012.72 1012.23 1011.86 1011.38 1010.93 1010.43 1009.48
1016.83 1017.13 1017.57 1018.29 1018.90 1019.42 1019.68 1019.85 1019.91 1019.98 1020.61 1020.78 1021.42 1022.19 1022.44 1022.64 1022.27 1021.97 1021.54 1021.24 1020.87 1020.48 1019.80 1019.26 1018.76 1018.21 1017.66 1017.19 1016.81 1016.46 1016.01 1015.51 1015.04 1014.56 1014.01 1013.57 1012.94 1012.35 1011.68 1011.06 1010.35 1009.73 1009.00
1017.42 1017.61 1018.37 1019.05 1019.63 1020.10 1020.53 1020.90 1021.05 1021.21 1021.55 1022.14 1022.62 1022.97 1023.13 1022.88 1022.56 1022.30 1021.81 1021.22 1020.70 1020.37 1019.79 1019.24 1018.60 1018.01 1017.65 1017.24 1016.90 1016.70 1016.14 1015.79 1015.37 1014.82 1014.51 1013.96 1013.55 1012.65 1011.66 1010.59 1009.69 1008.78 1007.76
1017.85 1018.34 1019.08 1019.73 1020.37 1021.07 1021.47 1021.76 1022.07 1022.52 1022.81 1023.20 1023.50 1023.56 1023.55 1023.45 1023.03 1022.51 1022.04 1021.32 1020.75 1020.26 1019.87 1019.43 1018.96 1018.56 1018.11 1017.81 1017.36 1017.06 1016.60 1016.38 1016.07 1015.53 1014.89 1014.23 1013.51 1012.41 1011.48 1010.51 1009.26 1007.84 1006.60
1018.20 1018.85 1019.62 1020.39 1021.04 1021.97 1022.63 1023.15 1023.48 1023.68 1023.65 1023.76 1024.03 1023.91 1023.89 1023.83 1023.43 1022.90 1022.41 1021.85 1021.38 1020.99 1020.40 1019.93 1019.58 1019.19 1018.79 1018.37 1017.91 1017.61 1017.18 1016.93 1016.54 1016.10 1015.42 1014.48 1013.56 1012.63 1011.58 1010.52 1009.39 1008.27 1007.44
1018.52 1019.44 1020.17 1020.92 1021.90 1022.65 1023.25 1023.97 1024.22 1024.03 1024.05 1024.08 1024.14 1024.16 1023.89 1023.65 1023.11 1022.61 1022.30 1021.84 1021.56 1021.19 1020.87 1020.61 1020.29 1019.91 1019.45 1019.14 1018.79 1018.37 1017.94 1017.70 1017.38 1016.77 1016.06 1015.30 1014.20 1013.13 1011.90 1010.50 1009.52 1008.64 1007.36
1019.06 1019.59 1020.54 1021.40 1022.16 1022.86 1023.46 1023.90 1024.41 1024.56 1024.48 1024.47 1024.34 1024.41 1024.14 1023.82 1023.28 1022.80 1022.41 1022.29 1022.01 1021.60 1021.50 1021.21 1020.93 1020.58 1020.12 1019.94 1019.69 1019.28 1018.85 1018.61 1018.22 1017.59 1016.91 1015.95 1014.89 1013.78 1012.43 1011.05 1009.80 1008.75 1007.06
1019.99 1020.28 1020.91 1021.37 1021.95 1022.62 1023.12 1023.70 1024.28 1024.73 1024.94 1024.55 1024.14 1024.30 1023.92 1023.54 1023.30 1023.11 1022.70 1022.47 1022.59 1022.17 1021.99 1021.79 1021.52 1021.17 1020.74 1020.71 1020.50 1020.10 1019.70 1019.28 1018.77 1018.17 1017.57 1016.54 1015.55 1014.44 1012.90 1011.57 1010.46 1009.34 1007.84
1020.71 1021.15 1021.37 1021.76 1022.03 1022.39 1022.77 1023.39 1023.89 1024.63 1024.82 1024.52 1024.26 1024.00 1023.65 1023.56 1023.40 1023.25 1023.12 1023.22 1023.25 1022.94 1022.51 1022.30 1022.00 1021.70 1021.40 1021.43 1021.25 1020.81 1020.52 1020.10 1019.56 1018.93 1018.22 1017.17 1016.13 1014.90 1013.48 1012.17 1011.00 1009.86 1008.57
1021.34 1021.53 1021.88 1022.26 1022.61 1023.12 1023.44 1023.94 1024.07 1024.53 1024.75 1024.68 1024.67 1024.57 1024.27 1024.18 1024.28 1024.19 1023.92 1023.71 1023.62 1023.35 1023.00 1022.79 1022.52 1022.26 1022.22 1022.17 1021.92 1021.49 1021.13 1020.65 1020.06 1019.42 1018.74 1017.75 1016.79 1015.50 1014.07 1012.68 1011.41 1009.89 1008.74
1021.99 1022.19 1022.34 1022.73 1023.23 1023.66 1024.03 1024.27 1024.35 1024.48 1024.72 1024.92 1024.89 1024.56 1024.54 1024.73 1024.89 1024.76 1024.61 1024.29 1024.04 1023.72 1023.42 1023.16 1022.94 1022.74 1022.94 1022.85 1022.57 1022.15 1021.75 1021.23 1020.76 1020.12 1019.17 1018.23 1017.25 1015.80 1014.53 1013.34 1012.09 1010.69 1009.49
1022.54 1022.87 1023.12 1023.46 1023.70 1024.13 1024.61 1024.39 1024.66 1024.76 1024.86 1025.15 1025.20 1024.92 1024.89 1025.01 1025.08 1025.12 1025.00 1024.75 1024.44 1024.07 1023.72 1023.56 1023.38 1023.25 1023.41 1023.35 1023.10 1022.71 1022.40 1021.87 1021.25 1020.50 1019.58 1018.56 1017.52 1016.28 1014.79 1013.69 1012.44 1011.22 1009.89
1023.14 1023.51 1023.71 1024.10 1024.22 1024.51 1024.85 1024.87 1025.16 1025.30 1025.42 1025.41 1025.40 1025.43 1025.43 1025.51 1025.51 1025.49 1025.38 1025.15 1024.82 1024.49 1024.08 1023.83 1023.65 1023.78 1023.84 1023.75 1023.47 1023.17 1022.87 1022.40 1021.79 1020.94 1020.00 1018.82 1017.65 1016.67 1015.28 1014.25 1013.01 1011.76 1010.64
1023.67 1023.98 1024.38 1024.70 1024.85 1025.17 1025.61 1025.72 1025.79 1025.61 1025.68 1025.77 1025.77 1025.80 1025.88 1025.87 1025.89 1025.86 1025.69 1025.41 1025.17 1024.84 1024.46 1024.21 1024.01 1024.25 1024.19 1024.03 1023.74 1023.42 1023.12 1022.62 1021.85 1021.05 1020.23 1019.19 1018.02 1016.62 1015.69 1014.75 1013.60 1012.58 1011.41
1024.47 1024.85 1025.20 1025.50 1025.86 1026.08 1026.14 1026.21 1026.40 1026.38 1026.25 1026.20 1026.15 1026.12 1026.19 1026.18 1026.23 1026.24 1025.98 1025.73 1025.51 1025.27 1024.92 1024.58 1024.42 1024.39 1024.38 1024.26 1024.08 1023.69 1023.23 1022.61 1021.86 1021.07 1020.20 1019.36 1018.18 1017.19 1016.24 1015.23 1014.08 1012.98 1011.94
1025.23 1025.59 1025.82 1026.02 1026.36 1026.52 1026.66 1026.97 1027.06 1027.00 1026.84 1026.68 1026.54 1026.49 1026.51 1026.51 1026.52 1026.58 1026.31 1026.06 1025.82 1025.54 1025.20 1024.97 1024.74 1024.71 1024.66 1024.61 1024.36 1023.86 1023.34 1022.73 1022.02 1021.16 1020.37 1019.25 1018.50 1017.65 1016.77 1015.85 1014.67 1013.85 1012.76
Wind_Speed
15 14 14 11 11 11 10 8 7 7 7 6 6 7 7 7 6 5 7 7 7 6 6 5 5 5 3 4 3 2 3 3 6 10 8 10 14 14 13 9 10 10 11
15 14 13 12 11 11 10 8 8 7 6 7 7 6 8 11 13 11 9 8 8 8 7 9 7 6 6 5 3 4 3 4 5 11 11 10 12 13 13 14 11 10 12
15 13 12 11 11 10 8 8 8 8 7 7 9 13 12 12 11 10 9 9 9 7 7 7 7 5 5 5 4 4 5 5 6 6 11 8 9 9 12 12 12 12 10
15 12 12 11 10 10 9 8 7 7 8 13 13 13 12 11 11 10 10 9 8 7 7 6 5 4 5 6 6 6 6 7 7 7 8 9 9 10 9 12 13 10 12
14 12 10 9 10 11 11 13 13 12 12 13 12 11 11 11 9 9 7 7 6 7 7 7 4 7 11 9 5 7 7 6 7 7 8 8 9 11 11 9 11 13 11
14 13 12 12 14 14 13 11 12 11 10 12 12 11 10 8 13 16 11 5 6 6 5 6 5 9 9 14 16 17 12 8 9 6 6 9 10 11 10 10 11 11 10
13 13 12 14 14 12 11 10 8 7 9 12 10 9 9 6 16 17 18 5 6 7 8 7 6 7 11 9 12 15 13 5 5 4 4 7 12 12 14 14 13 12 12
13 14 14 14 13 11 10 8 7 8 10 8 8 9 7 7 15 16 16 8 7 7 7 5 5 6 7 8 8 8 8 8 6 7 4 6 7 11 10 13 15 13 12
14 15 14 14 12 10 8 7 6 9 7 8 7 7 8 7 12 14 10 7 8 9 8 4 3 5 10 11 8 7 8 7 7 10 13 11 10 12 11 11 10 11 12
13 14 14 12 11 9 7 7 5 5 6 5 6 7 12 5 9 10 8 4 6 6 7 6 7 8 11 10 8 9 9 9 9 10 9 6 7 13 16 10 9 11 10
14 14 13 11 8 6 5 5 4 4 5 6 6 8 7 5 5 12 11 4 4 4 4 6 6 10 14 17 12 7 5 10 8 7 5 6 11 12 10 10 10 9 10
12 11 10 10 10 9 10 9 10 10 7 6 7 7 4 5 11 12 15 14 8 3 6 6 7 13 14 15 10 11 8 8 5 8 6 9 12 12 11 11 12 10 10
10 12 11 14 12 11 10 9 8 9 8 7 7 4 3 5 5 12 12 15 13 7 4 9 14 11 10 8 10 13 9 7 8 9 7 10 10 11 14 12 12 13 12
12 12 12 12 12 10 9 8 8 7 6 6 6 5 5 5 5 6 7 8 13 10 10 7 10 10 9 8 6 7 7 10 10 10 8 10 10 11 11 12 13 13 12
10 10 10 9 11 9 8 6 7 4 5 5 3 3 4 4 5 8 7 6 5 6 5 4 5 4 6 8 8 9 8 10 12 11 9 12 12 12 12 13 10 11 10
8 8 8 8 7 7 7 5 9 8 10 10 8 4 2 5 10 13 11 13 12 11 4 4 5 7 8 9 10 10 9 13 11 11 11 11 12 13 14 13 11 11 12
7 7 8 8 7 7 5 5 5 4 6 7 7 9 9 9 12 13 14 12 11 9 4 5 5 5 6 8 10 10 10 10 12 10 10 12 12 12 15 13 14 13 13
9 14 6 5 6 5 5 5 5 4 1 3 5 7 6 7 7 10 11 8 5 6 4 4 5 7 7 8 9 9 9 10 11 11 11 12 13 13 13 12 14 15 15
6 5 6 5 5 6 6 5 5 7 3 3 4 4 5 9 8 9 10 4 4 4 6 5 5 7 7 8 9 9 10 11 11 11 10 11 13 13 13 12 14 19 18
6 8 6 5 5 5 5 5 5 6 4 3 3 3 3 5 4 5 5 4 4 4 5 5 5 6 7 8 9 9 10 10 11 10 11 11 11 12 13 15 15 14 14
5 6 9 6 5 5 4 4 4 5 5 3 2 3 4 4 4 4 5 5 4 5 5 5 5 6 6 7 8 9 10 10 10 10 11 11 12 13 12 13 13 13 14
5 5 5 5 4 5 4 5 4 4 5 5 3 4 7 4 5 5 5 5 5 5 4 4 4 5 5 6 8 9 10 11 11 11 11 12 11 12 12 14 13 14 15
5 5 5 4 4 4 4 5 5 5 5 5 5 5 5 5 5 5 5 5 5 5 5 4 4 5 4 5 7 7 9 9 10 10 11 12 11 10 12 13 13 15 15
6 6 6 5 5 6 5 5 5 6 5 5 5 5 5 5 5 5 5 5 5 5 5 5 5 7 5 6 7 7 7 9 9 10 13 11 11 13 12 13 13 16 14
7 6 6 6 6 5 5 6 6 5 5 5 5 4 4 5 5 5 5 5 5 5 6 5 5 6 8 10 11 12 13 16 15 16 11 11 13 16 14 13 14 15 17
6 6 5 5 5 5 5 5 5 5 5 5 5 5 4 4 4 4 5 5 5 5 7 5 6 8 8 7 10 13 15 16 16 19 13 10 12 13 13 14 18 13 16
Wind_Direction
103 104 102 102 98 98 101 106 112 105 106 103 93 77 70 74 75 53 37 41 40 26 14 357 354 348 321 301 316 333 352 345 315 307 311 319 324 318 318 309 301 304 311
107 108 106 106 108 105 106 104 101 99 85 95 87 79 55 52 59 55 47 30 27 14 10 357 337 323 325 313 10 3 341 325 321 311 316 315 300 308 312 313 317 311 312
108 106 110 109 110 112 106 100 97 96 91 72 62 70 59 48 48 42 37 25 13 358 345 340 324 342 7 354 358 10 345 344 321 301 299 301 305 310 320 319 321 322 317
105 106 109 109 107 103 97 91 91 81 68 72 72 69 62 53 39 27 20 8 350 338 324 314 308 22 38 19 12 11 340 320 306 291 292 304 312 330 328 328 320 319 315
105 104 101 90 89 87 70 68 70 71 68 80 78 71 62 52 30 13 2 342 326 322 321 315 25 73 50 31 9 340 323 304 296 300 305 310 326 330 322 321 309 313 314
98 94 92 89 76 78 73 74 74 73 78 81 78 72 63 49 22 15 7 333 325 325 349 354 3 51 28 12 356 327 311 297 298 320 323 322 318 318 315 318 313 316 318
102 99 86 85 82 79 80 78 76 82 80 89 91 82 67 41 27 13 1 339 349 15 7 358 11 41 19 0 334 325 322 4 51 325 308 319 324 328 323 320 315 307 296
97 96 95 89 86 80 74 70 72 80 87 88 90 92 78 46 32 13 3 5 11 1 7 8 34 20 6 348 332 332 322 325 351 329 297 287 320 322 329 321 311 308 303
92 91 94 91 91 83 75 72 77 90 94 94 97 101 80 44 30 21 13 7 3 352 344 23 16 353 348 342 326 318 309 300 313 308 303 294 303 313 322 322 322 322 313
94 94 93 89 86 84 80 77 79 84 100 117 105 91 99 72 29 30 22 351 360 352 338 338 318 343 328 325 335 317 317 326 321 319 315 304 313 333 337 331 323 315 313
98 99 97 98 95 92 89 63 62 108 105 99 107 82 98 87 15 17 8 344 339 331 326 321 314 316 320 320 326 299 281 305 317 322 308 330 336 337 336 325 317 303 295
101 109 105 88 85 72 62 49 36 49 51 59 75 86 67 33 22 6 1 355 335 305 311 308 305 306 310 312 324 317 327 349 348 341 348 341 341 336 330 324 315 301 279
105 85 85 86 79 66 59 47 44 43 49 51 62 59 34 17 2 348 340 337 334 338 316 305 308 319 331 333 356 15 352 1 3 348 347 344 337 327 324 323 318 308 295
104 97 98 95 89 76 66 56 55 43 47 47 53 36 18 1 344 342 341 339 351 357 349 338 0 7 4 2 358 12 2 11 4 342 339 332 332 337 334 334 325 326 322
112 111 98 94 93 82 64 63 74 55 78 91 67 63 46 351 307 312 324 330 330 313 355 1 4 351 5 10 10 12 6 7 1 350 343 337 337 335 337 334 327 328 326
91 122 114 106 106 104 106 85 38 44 30 31 23 37 332 292 326 339 352 343 343 354 2 5 358 10 13 15 11 5 7 4 357 349 346 340 338 337 333 332 335 337 328
74 81 115 126 127 129 127 122 118 351 332 310 307 305 299 291 324 333 349 3 21 15 14 4 4 5 3 21 14 5 4 359 352 350 347 341 339 334 334 334 341 337 332
68 64 71 87 107 127 151 150 137 138 150 300 281 248 306 333 332 337 10 19 2 6 4 2 10 14 9 28 13 2 0 354 353 350 346 341 342 335 333 337 341 336 334
68 78 78 76 82 88 81 84 103 124 134 63 16 358 10 22 47 20 16 31 26 7 7 14 15 16 21 27 12 3 2 355 349 344 340 339 339 334 334 337 335 335 335
69 102 91 86 75 70 73 80 79 104 111 83 47 352 10 44 38 20 17 13 20 15 8 7 9 13 42 27 10 1 357 353 348 344 339 335 334 331 332 340 336 338 340
71 64 70 63 72 81 83 93 99 101 126 118 52 60 103 83 56 43 27 12 15 12 4 9 11 12 54 30 13 3 356 351 347 340 333 334 330 331 329 341 333 341 337
90 89 85 83 78 80 68 63 59 83 80 82 49 36 57 57 55 48 32 15 3 7 3 20 10 24 55 34 14 5 355 346 343 338 333 330 328 328 334 341 337 343 340
86 83 74 70 66 96 83 66 55 65 74 70 61 54 54 48 50 47 38 14 3 3 358 14 16 48 48 32 18 5 355 344 334 329 331 327 328 326 343 341 340 343 345
81 80 72 61 64 62 71 68 48 57 68 68 57 48 61 51 43 41 33 12 4 1 359 5 20 78 51 32 13 2 353 344 337 334 333 326 324 340 343 341 342 342 343
64 60 61 63 58 56 53 53 47 32 46 62 46 44 55 53 40 38 20 10 4 9 354 358 24 66 55 33 12 0 354 350 346 342 336 326 341 347 344 339 344 341 346
76 71 65 58 57 58 63 55 41 25 38 47 37 29 58 63 46 50 14 12 5 2 353 359 31 64 51 27 6 1 356 350 347 342 338 342 348 348 345 342 343 343 343